Wind_Speed
35 34 28 28 31 32 31 33 31 26 22 17 25 27 30 26 24 23 26 31 34 38 43 51 53 52 62 69 72 80 85 87 94 91 97 93 91 82 61 46 32 9 15
41 35 32 29 31 31 32 33 32 29 20 16 19 22 30 26 23 21 21 29 33 36 41 48 50 49 61 69 74 77 83 93 98 93 96 94 93 95 72 50 36 17 9
45 39 34 33 33 32 32 33 33 29 24 16 15 20 22 27 20 19 16 22 30 34 36 44 52 54 52 66 70 75 76 92 95 93 96 97 95 97 84 59 43 29 6
49 46 41 36 35 33 34 34 32 30 26 24 17 17 19 24 17 16 13 17 24 29 36 39 48 53 54 63 68 71 77 93 97 94 93 99 99 101 86 66 48 32 16
53 48 46 41 37 35 34 34 31 32 27 24 19 15 11 19 13 16 11 13 16 23 29 35 45 49 56 60 66 68 75 85 93 94 95 104 106 106 88 69 53 36 20
58 51 48 46 41 37 36 34 33 32 29 22 20 13 8 8 9 14 11 10 16 17 24 30 39 45 54 56 64 69 75 82 87 92 95 114 115 110 110 78 58 43 27
63 56 52 48 46 41 39 35 35 32 30 23 18 12 9 6 9 11 12 11 13 16 23 30 34 41 47 52 60 67 71 79 84 87 96 108 119 116 117 105 77 54 37
64 59 56 52 48 46 43 38 37 35 30 25 19 13 13 13 12 13 17 13 10 14 19 26 33 39 44 47 53 60 67 69 71 78 90 100 111 115 120 118 112 79 52
67 64 61 58 53 50 46 43 39 38 31 25 21 17 15 15 14 17 20 15 13 12 16 22 31 34 41 44 49 55 63 69 76 71 75 84 97 105 112 117 116 108 89
73 71 67 62 58 53 48 44 42 39 32 28 24 19 16 17 17 17 19 18 16 13 16 21 22 32 40 41 44 49 56 63 67 72 71 77 81 92 99 102 109 112 110
78 74 70 66 63 58 50 46 43 39 33 28 28 22 21 17 16 22 23 20 19 20 18 20 20 29 38 37 39 47 48 57 65 69 68 68 78 84 95 96 107 104 109
78 75 70 69 66 60 53 46 44 39 33 30 27 22 22 21 21 23 28 29 23 28 27 27 14 26 35 35 41 44 47 54 62 61 65 62 66 78 88 93 95 101 103
81 77 71 70 67 63 57 50 46 42 35 33 29 26 21 15 15 21 25 26 25 24 23 23 11 23 30 37 38 44 43 46 54 56 61 55 60 76 81 84 87 99 101
85 82 76 73 69 63 55 54 48 43 39 37 34 27 22 13 15 16 17 24 26 27 17 14 15 23 28 33 34 40 45 39 45 50 54 51 55 73 67 77 82 90 93
88 84 81 77 72 63 52 52 47 41 42 44 41 29 29 26 21 19 17 13 17 11 10 14 18 19 23 34 31 35 42 39 43 46 51 50 54 63 57 73 78 76 87
89 88 85 80 76 72 63 58 48 44 45 49 43 39 40 30 26 24 25 24 28 30 18 20 27 28 33 31 29 34 34 38 41 43 48 48 49 53 59 65 70 76 76
88 87 85 82 77 74 68 63 57 53 52 55 49 47 43 39 34 31 32 30 30 33 33 25 26 28 28 28 27 28 29 32 34 37 41 41 42 49 55 56 67 71 72
94 89 84 81 77 73 69 65 61 58 56 57 54 49 49 45 35 34 35 37 33 25 31 28 25 30 31 22 23 23 25 28 26 31 35 34 38 41 47 51 56 62 72
96 92 88 81 75 72 70 67 62 59 60 62 58 53 53 47 39 36 37 35 29 31 31 33 33 33 29 22 20 22 27 27 24 29 33 31 35 38 38 47 49 53 61
96 95 91 85 79 73 71 68 64 61 64 64 63 58 58 49 44 44 43 40 35 32 35 36 33 30 31 32 26 32 29 22 23 25 29 30 32 36 34 40 42 47 55
92 92 93 89 83 76 71 69 66 62 67 68 68 65 61 58 53 51 47 49 48 44 35 32 28 29 27 27 31 31 20 19 20 23 32 26 28 31 31 37 36 40 46
88 90 91 90 87 82 77 71 68 66 68 71 71 69 68 66 62 58 52 53 50 49 45 39 37 33 37 21 22 17 17 14 17 22 30 28 25 31 31 37 39 41 42
81 86 88 88 88 86 81 75 71 69 70 70 69 74 73 71 68 63 56 55 54 50 48 50 45 37 42 35 21 15 14 15 18 24 26 26 31 27 31 37 41 42 41
80 83 85 85 87 87 84 80 75 70 71 72 71 76 75 75 70 65 61 57 55 55 52 51 53 47 45 51 45 40 32 28 19 23 22 29 33 36 37 38 38 38 40
75 78 79 83 85 87 87 84 79 74 72 73 73 76 75 77 73 67 64 61 58 52 53 53 50 46 45 46 52 50 44 35 30 23 22 24 28 30 38 40 38 39 37
76 77 77 80 82 84 86 87 84 78 74 74 76 75 77 77 73 73 70 67 65 66 64 61 59 58 54 49 40 44 52 49 33 33 30 29 27 30 33 37 40 41 45
Wind_Direction
285 294 305 310 314 324 332 337 348 357 4 12 19 22 19 16 20 28 38 42 36 33 35 36 29 30 26 25 23 21 21 17 15 12 11 13 14 14 7 360 356 349 193
281 285 292 300 305 314 322 329 340 347 351 348 360 356 11 20 17 19 33 41 39 36 33 32 28 26 31 26 20 19 17 15 14 14 13 17 20 19 15 11 15 25 168
274 277 282 290 297 309 314 320 332 340 347 332 338 338 354 12 21 15 21 37 38 33 34 31 27 23 26 23 20 17 15 15 17 17 17 20 23 19 19 19 24 40 92
266 272 277 280 288 299 306 313 326 334 336 343 324 319 333 350 15 11 358 19 30 31 30 29 27 21 26 20 19 20 17 21 19 18 20 22 22 21 19 25 24 41 64
262 266 271 275 281 288 297 307 317 324 327 334 327 306 334 334 350 344 348 353 357 20 28 25 28 20 21 21 21 20 19 21 19 20 22 28 26 24 22 25 27 32 54
258 261 264 270 275 281 287 297 306 314 314 324 324 293 330 345 326 330 336 348 2 17 21 25 28 22 22 22 22 22 19 22 25 25 30 31 31 30 29 31 31 32 48
255 258 261 265 271 277 280 289 296 302 309 316 311 272 284 293 275 303 310 324 350 5 25 25 27 23 18 21 17 19 17 27 27 30 31 33 35 32 34 34 34 37 41
251 255 258 260 264 271 275 282 289 295 302 304 300 255 278 277 253 269 280 294 330 354 16 21 26 23 19 15 17 15 19 18 25 26 28 31 34 35 34 36 37 40 38
249 252 255 258 262 267 271 278 284 287 292 295 295 265 280 272 255 260 266 277 305 333 355 16 17 19 17 14 13 17 14 18 20 21 24 25 27 34 37 33 37 37 41
246 250 253 256 260 265 268 273 276 280 284 286 284 283 268 268 253 246 266 269 285 319 332 332 359 16 12 16 8 13 11 17 18 17 26 26 23 25 25 31 32 34 39
244 247 252 256 259 261 264 267 270 273 274 273 275 263 265 257 257 242 257 276 286 304 307 327 5 11 4 8 8 12 12 14 15 14 25 31 23 24 26 34 31 35 35
243 247 248 252 255 260 261 263 263 266 265 258 258 251 265 272 252 250 248 268 286 300 319 331 352 6 2 4 5 7 9 13 11 14 20 29 28 19 22 29 34 32 33
240 243 245 249 252 255 259 260 260 264 255 249 246 237 257 261 275 272 247 260 268 285 314 347 348 1 356 355 356 0 6 11 11 14 15 28 31 18 20 24 27 24 30
238 240 242 245 250 254 254 254 254 254 245 242 241 238 253 227 274 274 272 265 272 281 309 327 336 342 345 346 352 358 1 5 13 12 14 20 23 17 19 28 27 25 25
238 240 242 243 245 246 248 251 252 244 241 234 236 229 231 248 248 247 263 256 278 324 299 323 331 321 323 334 344 353 356 0 4 7 12 11 11 15 16 15 18 25 18
237 238 240 241 242 243 245 247 244 242 237 232 235 230 240 234 242 240 240 256 268 260 272 296 310 310 310 323 335 342 349 350 357 5 9 6 4 13 11 11 15 18 19
236 237 238 239 241 242 243 242 242 242 236 232 236 235 236 232 237 246 250 254 246 254 250 261 280 281 295 311 325 336 335 340 350 359 359 1 360 3 9 8 7 14 17
233 235 237 238 239 240 241 241 238 237 236 236 234 231 231 234 234 235 236 247 253 256 249 262 269 278 292 311 321 331 339 339 345 347 346 357 358 358 2 6 6 7 12
233 234 235 237 238 238 239 240 238 235 234 234 231 231 227 233 230 228 236 244 256 265 256 270 269 278 287 296 306 318 327 332 334 339 340 347 358 356 355 0 3 8 11
232 232 234 234 236 237 238 239 238 232 233 232 231 233 231 224 225 238 241 243 249 262 264 280 263 277 275 287 286 294 308 317 335 331 339 340 351 353 349 352 357 359 9
232 232 232 233 233 235 237 238 236 232 231 229 232 232 230 226 230 238 243 246 252 255 263 269 270 273 273 277 284 284 295 308 312 322 342 338 338 350 343 344 353 356 1
232 232 232 231 231 232 235 237 237 233 231 228 232 228 233 234 235 238 246 248 252 253 261 268 271 268 266 292 288 277 290 293 292 312 324 335 335 343 340 339 344 346 352
232 231 231 230 230 230 232 234 237 234 232 231 232 233 234 238 238 240 245 253 257 256 261 270 274 263 266 257 260 281 320 309 293 296 316 321 322 325 324 332 333 333 338
231 229 229 229 229 229 229 231 235 236 233 231 232 233 234 236 238 242 247 254 257 260 263 265 270 263 266 258 260 264 281 295 309 287 295 300 308 304 306 316 319 322 326
230 234 229 229 228 228 228 228 231 234 234 230 232 233 235 236 235 239 244 248 252 254 258 258 261 260 259 268 266 264 268 278 286 292 299 309 306 307 299 302 304 309 310
231 232 230 228 228 228 228 228 229 231 233 231 230 233 234 236 237 238 241 245 248 252 257 260 261 255 255 257 278 279 272 272 287 293 291 283 301 295 293 294 296 298 300
Height
11024 11024 11024 11023 11021 11020 11019 11018 11016 11014 11010 11006 11003 10999 10995 10990 10986 10981 10976 10969 10964 10958 10951 10942 10934 10922 10912 10900 10888 10874 10859 10840 10818 10795 10770 10745 10722 10697 10677 10659 10648 10642 10644
11021 11021 11021 11020 11018 11018 11017 11016 11015 11013 11010 11007 11004 11001 10997 10991 10988 10984 10979 10973 10966 10961 10954 10946 10936 10925 10915 10905 10894 10879 10862 10844 10821 10799 10776 10748 10723 10702 10680 10662 10649 10641 10642
11016 11016 11016 11016 11014 11016 11015 11014 11014 11012 11009 11006 11003 11000 10998 10994 10990 10987 10982 10976 10968 10963 10956 10949 10940 10930 10919 10908 10896 10885 10868 10853 10832 10806 10782 10758 10729 10706 10690 10670 10656 10645 10644
11009 11010 11011 11012 11012 11012 11011 11010 11011 11009 11007 11004 11001 10998 10996 10995 10991 10987 10983 10979 10971 10964 10958 10951 10942 10934 10922 10912 10900 10888 10875 10860 10840 10817 10794 10767 10739 10716 10696 10681 10666 10657 10652
11001 11005 11004 11006 11008 11008 11008 11007 11007 11006 11004 11001 10998 10996 10994 10992 10990 10986 10983 10978 10973 10966 10958 10953 10944 10937 10928 10917 10907 10893 10879 10866 10847 10825 10804 10780 10752 10730 10707 10689 10679 10668 10661
10993 10997 10997 10998 11002 11003 11003 11002 11002 11001 11000 10998 10995 10994 10992 10989 10987 10985 10982 10978 10974 10968 10960 10954 10947 10940 10931 10921 10910 10900 10887 10874 10859 10838 10817 10794 10768 10746 10724 10702 10690 10680 10671
10982 10986 10989 10991 10994 10996 10998 10997 10997 10996 10997 10995 10993 10991 10990 10987 10984 10982 10981 10978 10974 10970 10962 10955 10948 10942 10935 10925 10914 10905 10892 10880 10869 10849 10831 10808 10783 10765 10742 10724 10708 10694 10686
10971 10975 10979 10983 10986 10987 10991 10992 10992 10991 10993 10991 10989 10988 10987 10986 10983 10980 10978 10977 10972 10970 10964 10957 10951 10944 10937 10929 10920 10910 10899 10886 10874 10859 10844 10825 10800 10784 10765 10746 10729 10714 10705
10959 10963 10968 10972 10976 10980 10983 10985 10986 10985 10987 10986 10985 10985 10985 10983 10981 10979 10977 10975 10971 10968 10964 10959 10953 10946 10939 10932 10923 10913 10904 10893 10882 10869 10856 10840 10816 10802 10785 10771 10757 10742 10727
10944 10949 10954 10960 10965 10970 10974 10978 10979 10980 10981 10982 10981 10980 10981 10979 10978 10978 10974 10971 10969 10966 10963 10960 10955 10948 10942 10935 10926 10917 10908 10898 10887 10875 10864 10849 10829 10817 10806 10791 10780 10762 10747
10929 10936 10943 10949 10954 10959 10965 10969 10971 10972 10974 10975 10975 10974 10974 10974 10974 10973 10971 10968 10967 10964 10959 10958 10954 10949 10943 10936 10928 10921 10912 10903 10893 10882 10868 10857 10846 10835 10822 10807 10794 10781 10769
10917 10924 10932 10936 10941 10948 10953 10959 10961 10963 10966 10968 10969 10970 10969 10970 10970 10968 10969 10965 10967 10963 10959 10956 10953 10948 10944 10937 10931 10923 10915 10908 10897 10886 10877 10870 10859 10847 10833 10821 10810 10798 10786
10904 10910 10919 10924 10929 10936 10942 10948 10951 10955 10957 10960 10962 10964 10965 10966 10966 10967 10965 10961 10961 10961 10959 10954 10950 10947 10943 10937 10932 10925 10917 10910 10901 10891 10885 10878 10868 10856 10844 10834 10823 10812 10800
10885 10894 10904 10911 10916 10923 10930 10934 10938 10944 10948 10952 10954 10958 10960 10961 10959 10961 10960 10958 10957 10955 10957 10952 10948 10944 10941 10938 10932 10926 10920 10914 10909 10899 10893 10884 10875 10866 10854 10844 10834 10823 10810
10868 10879 10887 10896 10903 10911 10917 10921 10927 10933 10937 10941 10942 10947 10950 10953 10953 10954 10955 10952 10953 10954 10953 10949 10945 10941 10938 10936 10932 10928 10921 10914 10909 10901 10893 10887 10879 10873 10862 10855 10845 10834 10822
10849 10860 10870 10879 10888 10897 10904 10910 10916 10921 10925 10928 10934 10936 10938 10944 10946 10946 10949 10947 10946 10947 10947 10944 10942 10940 10937 10935 10930 10927 10922 10916 10911 10905 10897 10890 10884 10879 10872 10863 10854 10845 10834
10830 10841 10851 10861 10871 10880 10889 10895 10902 10907 10910 10916 10922 10926 10927 10931 10935 10937 10939 10938 10933 10933 10936 10936 10934 10934 10934 10932 10928 10925 10922 10917 10911 10907 10901 10894 10887 10883 10876 10868 10858 10854 10845
10808 10821 10832 10843 10854 10864 10873 10880 10887 10893 10899 10902 10909 10914 10917 10920 10925 10929 10930 10930 10929 10930 10931 10930 10928 10927 10929 10927 10925 10922 10919 10915 10910 10906 10903 10897 10890 10885 10881 10873 10866 10858 10852
10789 10801 10813 10826 10837 10848 10856 10862 10872 10879 10884 10890 10896 10902 10905 10909 10914 10917 10918 10921 10922 10923 10923 10924 10923 10922 10923 10922 10920 10918 10916 10912 10908 10904 10901 10898 10893 10888 10883 10878 10870 10864 10858
10767 10780 10794 10808 10820 10830 10839 10847 10855 10864 10869 10876 10883 10887 10891 10898 10901 10904 10907 10911 10913 10915 10917 10918 10917 10916 10917 10917 10915 10913 10911 10907 10904 10902 10899 10896 10894 10890 10885 10880 10873 10867 10863
10745 10761 10774 10788 10802 10813 10822 10830 10838 10849 10855 10862 10869 10874 10880 10884 10887 10893 10896 10899 10902 10904 10908 10911 10911 10911 10910 10910 10909 10907 10906 10901 10899 10896 10895 10893 10892 10889 10885 10881 10877 10871 10865
10724 10737 10751 10767 10781 10793 10804 10812 10822 10831 10839 10847 10855 10862 10867 10871 10876 10880 10883 10885 10890 10894 10897 10901 10902 10903 10904 10903 10903 10902 10900 10896 10894 10892 10889 10889 10888 10886 10884 10880 10877 10873 10869
10704 10716 10730 10747 10761 10774 10784 10796 10805 10814 10822 10831 10841 10847 10853 10857 10859 10866 10870 10872 10876 10882 10885 10888 10892 10894 10896 10897 10897 10896 10893 10892 10888 10887 10885 10882 10882 10882 10882 10880 10877 10873 10871
10682 10695 10710 10725 10739 10753 10766 10777 10788 10797 10806 10814 10823 10831 10837 10841 10847 10854 10858 10861 10864 10869 10874 10877 10881 10886 10887 10887 10886 10888 10886 10885 10884 10882 10880 10879 10878 10878 10877 10877 10875 10872 10868
10670 10678 10693 10705 10719 10732 10745 10757 10769 10779 10788 10799 10806 10812 10819 10826 10834 10840 10843 10848 10852 10858 10862 10865 10869 10872 10876 10877 10876 10879 10879 10877 10878 10877 10876 10873 10873 10872 10872 10871 10870 10867 10865
10652 10661 10673 10687 10701 10715 10729 10738 10749 10761 10771 10781 10790 10797 10803 10810 10818 10823 10829 10834 10839 10843 10849 10852 10855 10858 10862 10863 10867 10867 10868 10868 10869 10869 10867 10867 10866 10864 10864 10862 10862 10861 10858